Regional Weather Roundup
Issued by NWS Sioux Falls, SD

Home | Current Version | Previous Version | Text Only | Print | Product List | Glossary On
Versions: 1 2 3 4 5 6 7 8 9 10 11 12 13 14 15 16 17 18 19 20 21 22 23 24 25 26 27 28 29 30 31 32 33 34 35 36 37 38 39 40 41 42 43 44 45 46 47 48 49 50
000
ASUS43 KFSD 210302
RWRFSD

WEATHER ROUNDUP FOR SE SOUTH DAKOTA/SW MINNESOTA/NW IOWA
NATIONAL WEATHER SERVICE SIOUX FALLS SD
1000 PM CDT SAT SEP 20 2014

NOTE: "FAIR" INDICATES FEW OR NO CLOUDS BELOW 12,000 FEET WITH NO
SIGNIFICANT WEATHER AND OR OBSTRUCTIONS TO VISIBILITY.


SDZ038>040-050-052>070-210400-
SOUTHEAST SOUTH DAKOTA

CITY           SKY/WX    TMP DP  RH WIND       PRES   REMARKS
CHAMBERLAIN    CLEAR     56  41  58 NW5       30.10R
HURON          CLEAR     53  41  63 NW8       30.04R
MADISON        FAIR      54  46  76 NW8       30.03S
MITCHELL       CLEAR     58  44  60 NW8       30.05R
SIOUX FALLS    PTCLDY    60  45  57 NW6       30.02R
WINNER         FAIR      61  38  42 NW10      30.13R
YANKTON        CLEAR     61  46  59 NW9       30.05R
$$

MNZ071-072-080-081-089-090-097-098-210400-
SOUTHWEST MINNESOTA

CITY           SKY/WX    TMP DP  RH WIND       PRES   REMARKS
FAIRMONT       CLEAR     57  52  82 W10       29.95S
JACKSON        CLEAR     59  52  77 NW9       29.97S
LUVERNE        PTCLDY    61  45  55 NW6       30.01R
MARSHALL       CLEAR     57  46  67 W12       29.95S
MONTEVIDEO     CLEAR     57  54  88 NW8       29.93S
PIPESTONE      PTCLDY    61  45  55 NW7       30.00S
REDWOOD FALLS  CLEAR     58  54  86 W10       29.92S
TRACY          CLEAR     58  51  76 CALM      29.97R
WINDOM         CLEAR     57  54  88 W5        29.97R
WORTHINGTON    PTCLDY    57  48  72 NW10      30.00R
$$

IAZ001>003-012>014-020>022-031-032-NEZ013-014-SDZ071-210400-
NORTHWEST IOWA

CITY           SKY/WX    TMP DP  RH WIND       PRES   REMARKS
CHEROKEE       CLEAR     62  54  73 CALM      30.01R
DENISON        PTCLDY    68  54  60 N13G20    29.99R
ESTHERVILLE    CLEAR     56  53  90 NW7       29.97R
LE MARS        CLEAR     64  52  63 N7        30.03R
ORANGE CITY    CLEAR     64  46  52 N7        30.02R
SHELDON        PTCLDY    57  50  77 NW7       30.00R
SIOUX CITY     CLEAR     69  50  50 N10       30.02R
SPENCER        PTCLDY    58  53  84 NW6       29.99R
$$

ABBREVIATIONS USED IN REMARKS
   TC - TEMPERATURE IN CELSIUS
  WCI - WIND CHILL INDEX
   HX - HEAT INDEX
  VSB - VISIBILITY



USA.gov is the U.S. government's official web portal to all federal, state and local government web resources and services.